Somerville, NJ

6:32 AM EDT on April 25, 2017 (GMT -0400)
Somerset

Weather History for KSMQ - June, 2015

Change the Weather History Date:

Tuesday, June 30, 2015

  Actual Average Record
Temperature  
Mean Temperature 70 °F -  
Max Temperature 82 °F 83 °F 99 °F (1964)
Min Temperature 57 °F 59 °F 45 °F (1988)
Cooling Degree Days 4    
Growing Degree Days 20 (Base 50)    
Moisture  
Dew Point 63 °F    
Average Humidity 77    
Maximum Humidity 93    
Minimum Humidity 49    
Precipitation  
Precipitation 0.13 in - - ()
Sea Level Pressure  
Sea Level Pressure 29.88 in    
Wind  
Wind Speed 4 mph (SSE)    
Max Wind Speed 14 mph    
Max Gust Speed 22 mph    
Visibility 9 miles    
Events Rain    
Averages and records for this station are not official NWS values.
T = Trace of Precipitation, MM = Missing Value Source: NWS Daily Summary

Daily Weather History Graph

Daily Weather History Graph

Search for Another Location

Airport or City:

Trip Planner

Search our weather history database for the weather conditions in past years. The results will help you decide how hot, cold, wet, or windy it might be!

Date:

Astronomy

Jun. 30, 2015 Rise Set
Actual Time 5:30 AM EDT 8:33 PM EDT
Civil Twilight 4:57 AM EDT 9:06 PM EDT
Nautical Twilight 4:15 AM EDT 9:48 PM EDT
Astronomical Twilight 3:25 AM EDT 10:38 PM EDT
Moon 7:06 PM EDT (6/30) 4:21 AM EDT (6/30)
Length of Visible Light 16h 09m
Length of Day
15h 02m
Waxing Gibbous, 97% of the Moon is Illuminated
Jun 30
Waxing Gibbous
Jul 1
Full
Jul 8
Last Quarter
Jul 15
New
Jul 24
First Quarter

Hourly Weather History & Observations

Time (EDT) Temp. Heat Index Dew Point Humidity Pressure Visibility Wind Dir Wind Speed Gust Speed Precip Events Conditions
12:53 AM 61.0 °F - 57.9 °F 90% 29.94 in 9.0 mi NNW 3.5 mph - N/A   Clear
1:53 AM 59.0 °F - 57.0 °F 93% 29.95 in 10.0 mi Calm Calm - N/A   Clear
2:53 AM 57.9 °F - 55.9 °F 93% 29.94 in 8.0 mi Calm Calm - N/A   Clear
3:53 AM 57.9 °F - 55.9 °F 93% 29.94 in 7.0 mi Calm Calm - N/A   Clear
4:53 AM 59.0 °F - 55.9 °F 90% 29.94 in 9.0 mi Calm Calm - N/A   Overcast
5:53 AM 60.1 °F - 57.0 °F 90% 29.94 in 8.0 mi Calm Calm - N/A   Overcast
6:53 AM 61.0 °F - 59.0 °F 93% 29.96 in 7.0 mi Calm Calm - N/A   Overcast
7:53 AM 64.9 °F - 61.0 °F 87% 29.96 in 9.0 mi North - - N/A   Overcast
8:53 AM 69.1 °F - 63.0 °F 81% 29.96 in 10.0 mi Calm Calm - N/A   Overcast
9:53 AM 73.0 °F - 62.1 °F 68% 29.94 in 10.0 mi SSE 5.8 mph - N/A   Clear
10:53 AM 77.0 °F - 62.1 °F 60% 29.93 in 10.0 mi SSE 6.9 mph - N/A   Mostly Cloudy
11:53 AM 81.0 °F 81.9 °F 62.1 °F 52% 29.91 in 10.0 mi South 11.5 mph 19.6 mph N/A   Mostly Cloudy
12:53 PM 82.0 °F 83.1 °F 63.0 °F 52% 29.90 in 10.0 mi South 12.7 mph - N/A   Mostly Cloudy
1:53 PM 82.0 °F 83.4 °F 64.0 °F 54% 29.88 in 10.0 mi SSE 10.4 mph - N/A   Mostly Cloudy
2:53 PM 82.0 °F 82.7 °F 61.0 °F 49% 29.85 in 10.0 mi SSE 13.8 mph 20.7 mph N/A   Scattered Clouds
3:53 PM 80.1 °F 80.9 °F 60.1 °F 50% 29.84 in 10.0 mi South 10.4 mph - N/A   Partly Cloudy
4:53 PM 82.0 °F 83.4 °F 64.0 °F 54% 29.83 in 10.0 mi SSE 5.8 mph - 0.00 in Rain Light Rain
5:53 PM 81.0 °F 81.9 °F 62.1 °F 52% 29.82 in 10.0 mi SSE 9.2 mph 19.6 mph 0.00 in   Mostly Cloudy
6:53 PM 78.1 °F - 63.0 °F 60% 29.83 in 10.0 mi SSE 11.5 mph 21.9 mph N/A   Partly Cloudy
7:53 PM 75.9 °F - 64.9 °F 69% 29.83 in 10.0 mi SSE 9.2 mph - N/A   Partly Cloudy
8:53 PM 75.0 °F - 66.9 °F 76% 29.84 in 10.0 mi SSE 5.8 mph - N/A   Mostly Cloudy
9:25 PM 72.0 °F - 68.0 °F 87% 29.84 in 2.0 mi SE 5.8 mph 20.7 mph 0.13 in Rain Light Rain
9:34 PM 72.0 °F - 68.0 °F 87% 29.84 in 10.0 mi Calm Calm - 0.13 in   Overcast
9:44 PM 72.0 °F - 69.1 °F 91% 29.83 in 10.0 mi Calm Calm - 0.13 in   Mostly Cloudy
9:53 PM 71.1 °F - 69.1 °F 93% 29.84 in 9.0 mi Calm Calm - 0.13 in   Mostly Cloudy
10:43 PM 72.0 °F - 69.1 °F 91% 29.83 in 10.0 mi SE 3.5 mph - N/A   Overcast
10:53 PM 72.0 °F - 69.1 °F 91% 29.83 in 9.0 mi SE 6.9 mph - N/A   Overcast
11:22 PM 72.0 °F - 69.1 °F 91% 29.82 in 10.0 mi Calm Calm - N/A   Mostly Cloudy
11:53 PM 72.0 °F - 69.1 °F 91% 29.81 in 9.0 mi Calm Calm - N/A   Overcast